Welcome to the New NWS' Forecast!
Most changes are behind the scenes, but click here for differences you might notice.
Latest weather observations around

Bishop, Bishop Airport (KBIH)

Using English Units (Switch to International System of Units)
Date/ Time (PDT) Wind (mph) Vis. (mi) Weather Sky Cond. Temp (°F) Rel. Humidity Wind Chill (°F) Heat Index (°F) Pressure Precip. (in)
Air Dwpt 6 hour Altimeter (inHg) Sea level (inHg) 1 hr 3 hr 6 hr
Max Min
Sep 23 06:56 N 10 10 Mostly Clear FEW075 44 26     49% 39   29.97 29.9      
Sep 23 05:56 N 6 10 Mostly Cloudy BKN075 43 26     51% 39   29.96 29.89      
Sep 23 04:56 N 10 10 Mostly Clear FEW080 46 26     45% 41   29.95 29.87      
Sep 23 03:56 NNE 11 10 Mostly Cloudy BKN090 49 26     41% 44   29.95 29.86      
Sep 23 02:56 N 15 10 Cloudy OVC095 50 26     39% 45   29.95 29.85      
Sep 23 01:56 N 15 10 Cloudy OVC080 51 26     38%     29.95 29.85      
Sep 23 00:56 N 15 10 Cloudy OVC080 51 26     38%     29.94 29.85      
Sep 22 23:56 N 16 10 Cloudy BKN075 OVC100 52 27     38%     29.93 29.84      
Sep 22 22:56 N 15 10 Cloudy BKN080 OVC095 52 28     39%     29.93 29.84      
Sep 22 21:56 N 17 10 Cloudy OVC085 53 29     39%     29.92 29.84      
Sep 22 20:56 N 25 10 Cloudy and Windy SCT100 OVC120 54 30     40%     29.91 29.83      
Sep 22 19:56 N 20 10 Cloudy and Windy OVC090 55 26     32%     29.88 29.81      
Sep 22 18:56 N 20 10 Cloudy and Windy OVC100 57 27     31%     29.85 29.81      
Sep 22 17:56 N 16 10 Cloudy OVC110 62 21     20%     29.84 29.78      
Sep 22 16:56 NNW 8 10 Cloudy OVC110 64 17     16%     29.83 29.77      
Sep 22 15:56 NNW 7 10 Partly Cloudy SCT110 67 17     15%     29.83 29.75      
Sep 22 14:56 5 10 Mostly Clear FEW120 65 15     14%     29.84 29.77      
Sep 22 13:56 3 10 Clear CLR 64 16     15%     29.86 29.79      
Sep 22 12:56 N 3 10 Clear CLR 61 17     18%     29.88 29.82      
Sep 22 11:56 WNW 7 10 Clear CLR 61 20     20%     29.9 29.83      
Sep 22 10:56 6 10 Clear CLR 59 24     26%     29.92 29.84      
Sep 22 09:56 7 10 Clear CLR 56 26     31%     29.92 29.85      
Sep 22 08:56 3 10 Clear CLR 53 27     36%     29.92 29.85      
Sep 22 07:56 NNW 3 10 Clear CLR 44 26     49% 43   29.92 29.86      
Sep 22 06:56 N 6 10 Clear CLR 33 24     69% 28   29.91 29.87      
Sep 22 05:56 WSW 6 10 Clear CLR 37 26     64% 32   29.89 29.83      
Sep 22 04:56 NNW 8 10 Clear   37 25     61% 31   29.88 29.82      
Sep 22 03:56 3 10 Clear CLR 39 25     57% 37   29.87 29.8      
Sep 22 02:56 Calm 10 Clear CLR 39 25     57%     29.88 29.8      
Sep 22 01:56 N 3 10 Clear CLR 39 26     59% 37   29.89 29.81      
Sep 22 00:56 N 7 10 Clear CLR 41 27     57% 36   29.88 29.8      
Sep 21 23:56 N 6 10 Clear CLR 43 27     53% 39   29.87 29.79      
Sep 21 22:56 NNW 13 10 Clear CLR 48 26     42% 43   29.86 29.78      
Sep 21 21:56 N 16 10 Clear CLR 50 29     44% 44   29.86 29.78      
Sep 21 20:56 N 15 10 Clear CLR 52 25     35%     29.85 29.76      
Sep 21 19:56 N 16 10 Clear CLR 53 26     35%     29.82 29.73      
Sep 21 18:56 NNW 24 10 Clear and Windy CLR 55 25     31%     29.79 29.7      
Sep 21 18:03 N 21 10 Clear and Windy CLR 58 25     28%     29.76        
Sep 21 17:56   10 Clear CLR 59 24     26%     29.76 29.66      
Sep 21 16:56 WSW 11 10 Clear CLR 63 14     15%     29.74 29.61      
Sep 21 15:56 WSW 21 10 Clear and Windy CLR 65 13     13%       29.59      
Sep 21 14:56 WNW 16 10 Clear CLR 67 12     12%       29.57      
Sep 21 13:56 W 20 10 Clear and Windy CLR 69 6     8%       29.55      
Sep 21 12:56 SW 14 10 Mostly Clear FEW085 70        %       29.57      
Sep 21 11:56 3 10 Clear CLR 65 39     38%       29.59      
Sep 21 10:56 N 7 10 Partly Cloudy FEW040 FEW070 SCT095 60 46     60%     29.73 29.61 0   0
Sep 21 09:56 N 20 10 Light Rain OVC065 59 41     51%     29.72 29.6 0    
Sep 21 08:56 N 18 10 Partly Cloudy SCT120 63 38     40%     29.69 29.57      
Sep 21 07:56 N 14 10 Cloudy OVC090 59 40     49%     29.67 29.54      
Sep 21 06:56 N 17 10 Cloudy OVC110 58 39     49%     29.66 29.53      
Sep 21 05:56 N 20 10 Cloudy and Windy OVC100 60 38     44%     29.64 29.49      
Sep 21 05:47   10 Mostly Cloudy BKN100 61 37     41%     29.63        
Sep 21 04:56 SSW 9 10 Mostly Clear FEW100 68 30     24%     29.6 29.43      
Sep 21 03:56 E 3 10 Mostly Clear FEW100 63 30     29%     29.61 29.45      
Sep 21 03:09   10 Clear CLR 72 29     20%   70 29.63        
Sep 21 02:56   10 Clear CLR 71 28     20%   69 29.64 29.48      
Sep 21 01:56 W 11 10 Clear CLR 71 28     20%   69 29.66 29.49      
Sep 21 00:56 WNW 11 10 Clear CLR 63 34     34%     29.67 29.52      
Sep 20 23:56 NNW 8 10 Clear CLR 64 34     33%     29.69 29.54      
Sep 20 22:56 NW 8 10 Clear CLR 66 34     30%     29.7 29.56      
Sep 20 21:56 WSW 13 10 Partly Cloudy SCT110 67 35     31%     29.71 29.58      
Sep 20 20:56 NNE 10 10 Clear CLR 69 35     29%     29.72 29.59      
Sep 20 19:56   10 Clear CLR 73 35     25%   71 29.71 29.59      
Sep 20 18:56 WSW 9 10 Mostly Clear FEW120 77 30     18%   75 29.68 29.57      
Sep 20 17:56 W 25 10 Clear and Windy CLR 81 32     17%   80 29.69 29.57      
Sep 20 16:56 WSW 21 10 Partly Cloudy and Windy SCT110 85 34     16%   82 29.69 29.57      
Sep 20 15:56 5 10 Partly Cloudy SCT110 87 32     14%   83   29.56      
Sep 20 14:56 SSE 6 10 Clear CLR 82 33     17%   80   29.59      
Sep 20 13:56 ESE 9 10 Clear CLR 84 31     15%   81 29.76 29.62      
Sep 20 12:56 ESE 9 10 Clear CLR 82 30     15%   80 29.8 29.65      
Sep 20 11:56 S 10 10 Clear CLR 81 30     16%   79 29.83 29.68      
Sep 20 10:56 SE 8 10 Clear CLR 76 33     21%   74 29.85 29.71      
Sep 20 09:56 SSE 8 10 Clear CLR 71 32     24%   69 29.89 29.75      
Sep 20 08:56 N 3 10 Clear CLR 65 34     32%     29.9 29.76      
Sep 20 07:56 N 6 10 Clear CLR 57 34     42%     29.9 29.78      
Jun 12 00:56   10 Clear CLR 47 20     34%     29.84 29.73      
Jun 11 19:56   10 Clear CLR 56 8     14%     29.77 29.67      
Jun 11 18:56   10 Clear CLR 59 7     12%     29.78 29.69      
Jun 11 13:56   10 Clear CLR 75 13     9%   73 29.65 29.54      
Notice The following observation data may not be complete
Jun 11 06:56 3 10 Clear CLR   32      %     29.69 29.55      
Notice The following observation data may not be complete
Jun 11 05:56 NNE 5 10 Clear CLR   28      %       29.56      
Jun 10 23:56 W 7 10 Clear   62 28     27%       29.56      
Jun 10 19:56   10 Clear CLR 74 23     15%   72 29.68 29.54      
Jun 10 16:56 W 11 10 Clear CLR 88        %     29.65 29.51      
Jun 10 08:56 3 10 Clear CLR 70 31     23%       29.63      
Jun 10 04:56 WNW 6 10 Clear CLR 51 32     48%     29.75 29.61      
Jun 10 02:56 NNW 6 10 Clear CLR 55 32     41%     29.77 29.63      
Jun 09 22:56 N 9 10 Clear CLR 67 31     26%     29.78 29.64      
Jun 09 15:56   10 Clear CLR 91 25     9%   86 29.68 29.53      
Jun 09 10:56 SSE 6 10 Clear CLR 79 34     20%   77 29.82 29.68      
Jun 09 09:56 NW 5 10 Clear CLR 77 37     24%   76 29.84 29.7      
Jun 09 00:56 N 14 10 Clear   62 36     38%     29.88 29.73      
Notice The following observation data may not be complete
Jun 08 08:56   10 Clear CLR          %              
Jun 07 14:56 SSE 21 10 Clear and Windy CLR 96        %     29.85 29.7      
Jun 06 10:56 N 5 10 Clear CLR 87 34     15%   84   29.82      
Jun 05 21:56 N 5 10 Clear CLR 75 33     22%   73   29.76      
Jun 05 18:56 S 10 10 Clear CLR 90 30     12%   86   29.71      
Jun 05 17:56 SSW 7 10 Clear CLR 92 27     10%   87   29.71      
Jun 05 12:56 WNW 6 10 Clear CLR 88 31     13%   84   29.78